Weather History for TNCB - November, 2011

Change the Weather History Date:

Friday, November 25, 2011

  Actual Average Record
Temperature  
Mean Temperature 80 °F -  
Max Temperature 86 °F 85 °F - ()
Min Temperature 74 °F 77 °F - ()
Cooling Degree Days 15    
Growing Degree Days 30 (Base 50)    
Moisture  
Dew Point 77 °F    
Average Humidity 87    
Maximum Humidity 100    
Minimum Humidity 74    
Precipitation  
Precipitation 0.31 in - - ()
Sea Level Pressure  
Sea Level Pressure 29.88 in    
Wind  
Wind Speed 5 mph ()    
Max Wind Speed 16 mph    
Max Gust Speed -    
Visibility 7.8 miles    
Events Rain    
T = Trace of Precipitation, MM = Missing Value Source: Averaged Metar Reports

Daily Weather History Graph

Daily Weather History Graph

Search for Another Location

Airport or City:

Trip Planner

Search our weather history database for the weather conditions in past years. The results will help you decide how hot, cold, wet, or windy it might be!

Date:

Astronomy

Nov. 25, 2011 Rise Set
Actual Time 6:34 AM AST 6:05 PM AST
Civil Twilight 6:12 AM AST 6:27 PM AST
Nautical Twilight 5:46 AM AST 6:53 PM AST
Astronomical Twilight 5:20 AM AST 7:19 PM AST
Moon 6:50 AM AST (11/25) 6:38 PM AST (11/25)
Length of Visible Light 12h 15m
Length of Day
11h 30m
New Moon, 0% of the Moon is Illuminated
Nov 25
New Moon
Dec 2
First Quarter
Dec 10
Full
Dec 17
Last Quarter
Dec 24
New

Hourly Weather History & Observations

Time (AST) Temp. Heat Index Dew Point Humidity Pressure Visibility Wind Dir Wind Speed Gust Speed Precip Events Conditions
12:00 AM 80.6 °F 87.1 °F 77.0 °F 89% 29.92 in - North - - N/A   Unknown
2:00 AM 76 °F - 76 °F 100%  in - Calm Calm - -   Clear
2:00 AM 77.0 °F - 77.0 °F 100% 29.89 in - Calm Calm - N/A Rain Light Rain
3:00 AM 77.0 °F - 77.0 °F 100% 29.86 in - Calm Calm - N/A   Unknown
5:00 AM 77 °F - 77 °F 100%  in - Calm Calm - -   Clear
5:00 AM 77.0 °F - 77.0 °F 100% 29.86 in - North - - N/A   Unknown
6:00 AM 78.8 °F - 78.8 °F 100% 29.86 in - North - - N/A   Unknown
7:00 AM 78.8 °F - 77.0 °F 94% 29.86 in - Calm Calm - N/A   Unknown
8:00 AM 80 °F - 76 °F 84% 29.92 in 16 mi East 9.2 mph - -   Partly Cloudy
8:00 AM 80.6 °F 87.1 °F 77.0 °F 89% 29.89 in 6.2 mi East 9.2 mph - N/A   Scattered Clouds
9:00 AM 84.2 °F 94.1 °F 77.0 °F 79% 29.92 in 6.2 mi East 12.7 mph - N/A   Scattered Clouds
10:00 AM 82.4 °F 90.9 °F 77.0 °F 84% 29.92 in 6.2 mi East 13.8 mph - N/A   Mostly Cloudy
11:00 AM 81 °F - 76 °F 82% 29.96 in 19 mi East 12.7 mph - - Rain Light Rain Showers
11:00 AM 80.6 °F 87.1 °F 77.0 °F 89% 29.95 in 6.2 mi East 12.7 mph - N/A   Scattered Clouds
12:00 PM 84.2 °F 94.1 °F 77.0 °F 79% 29.92 in 6.2 mi East 16.1 mph - N/A   Scattered Clouds
1:00 PM 84.2 °F 94.1 °F 77.0 °F 79% 29.89 in 6.2 mi East 12.7 mph - N/A   Scattered Clouds
2:00 PM 86.0 °F 96.9 °F 77.0 °F 74% 29.86 in 6.2 mi East 11.5 mph - N/A   Scattered Clouds
3:00 PM 84.2 °F 92.3 °F 75.2 °F 74% 29.83 in 6.2 mi East 11.5 mph - N/A   Scattered Clouds
4:00 PM 84.2 °F 94.1 °F 77.0 °F 79% 29.80 in 6.2 mi East 10.4 mph - N/A   Scattered Clouds
5:00 PM 84.2 °F 94.1 °F 77.0 °F 79% 29.80 in 6.2 mi East 10.4 mph - N/A   Scattered Clouds
6:00 PM 80.6 °F 86.2 °F 75.2 °F 84% 29.80 in 6.2 mi North - - N/A   Scattered Clouds
10:00 PM 80.6 °F 86.2 °F 75.2 °F 84% 29.86 in - North - - N/A   Unknown
11:00 PM 81 °F - 76 °F 80%  in 6 mi Calm Calm - -   Clear
11:00 PM 80.6 °F 86.2 °F 75.2 °F 84% 29.89 in - North - - N/A   Unknown